Location: WWIN Observatory
(34.8953°N, 91.9583°W)
Time: 11:04:15
(UTC-05:00)

Daily predictions for brighter satellites

Satellite Brightness Start Highest point End
(mag) Time Altitude Azimuth Time Altitude Azimuth Time Altitude Azimuth
Spot 2 Rocket 4.3 20:44:02 10° SE 20:48:31 34° ENE 20:53:02 10° N
Cosmos 1420 Rocket 4.4 20:47:51 10° N 20:52:52 49° ENE 20:57:52 10° SE
Cosmos 1452 Rocket 3.7 20:48:16 10° N 20:53:30 58° ENE 20:58:40 10° SSE
Cosmos 1844 Rocket 3.3 20:50:21 10° SSE 20:55:27 36° ESE 21:00:34 10° NE
SJ-6B 3.8 20:54:10 10° S 20:57:56 49° W 21:01:50 10° NNW
NOAA 11 4.4 20:54:51 10° SSE 21:00:06 53° ENE 21:05:22 10° N
Cosmos 1844 4.5 20:56:57 10° SSE 21:01:51 31° ESE 21:06:48 10° NE
CZ-3C R/B 3.7 20:48:35 10° SW 21:04:11 20° SSW 21:09:08 10° SSE
YAOGAN 6 3.2 21:01:08 10° S 21:04:35 55° W 21:08:03 10° NNW
Cosmos 1238 Rocket 3.4 21:04:01 10° SE 21:06:24 22° E 21:08:49 10° NE
ATLAS 3B R/B 4.4 21:02:21 10° N 21:06:46 18° NE 21:11:08 10° E
Cosmos 2285 Rocket 4.1 21:00:41 10° S 21:06:52 59° ESE 21:13:02 10° NNE
Cosmos 1400 Rocket 3.3 21:02:59 10° SSW 21:06:59 66° W 21:10:58 10° N
BREEZE-M R/B 2.7 21:07:38 10° WNW 21:10:56 46° SW 21:13:05 12° SSE
Cosmos 2266 Rocket 4.0 21:05:58 10° N 21:12:21 72° E 21:18:35 10° SSE
Lacrosse 5 2.9 21:07:31 10° WSW 21:12:25 50° NW 21:17:21 10° NNE
Cosmos 1470 3.8 21:09:04 10° NNW 21:12:50 47° W 21:16:36 10° SSW
Cosmos 1346 Rocket 4.2 21:13:15 10° NNE 21:16:31 23° ENE 21:19:03 14° ESE
Cosmos-2242 4.2 21:14:43 10° NNE 21:18:27 26° ENE 21:21:20 14° SE
Aureole 1 Rocket 3.2 21:15:59 10° SSW 21:19:01 53° WNW 21:22:37 10° N
Meteor 1-24 Rocket 4.1 21:14:07 10° S 21:19:56 54° E 21:25:47 10° NNE
H-2A R/B 3.1 21:18:45 13° SE 21:22:45 30° ENE 21:27:23 10° N
Timation 1 Rocket 4.4 21:17:13 10° S 21:23:00 56° ESE 21:28:50 10° NNE
Cosmos 1269 Rocket 4.0 21:19:37 10° SSW 21:24:55 80° ESE 21:30:14 10° NNE
ATLAS 2AS CENTAUR R/B 3.1 21:27:19 10° SSW 21:35:01 85° WNW 21:43:11 10° NNE
Centaur D-1AR AC-36 3.8 21:16:24 10° W 21:35:07 32° SSW 21:38:59 16° SSE
Aurora 2 Rocket 4.2 21:31:15 10° SW 21:36:31 34° SSE 21:41:56 16° ESE
Cosmos 1908 4.5 21:33:21 10° NNE 21:36:37 25° ENE 21:38:07 20° ESE
SEDSat Delta rocket 4.1 21:36:03 10° SW 21:40:55 33° SSE 21:43:33 20° ESE
Cosmos 1340 4.5 21:39:13 10° NNE 21:41:44 17° ENE 21:42:34 16° E
In-Cosmos 22 4.3 21:36:16 10° S 21:41:47 82° W 21:47:28 10° N
Meteor 2-5 Rocket 4.3 21:36:05 10° SSW 21:41:58 63° W 21:47:50 10° N
Iridium 4 Rocket 3.8 21:36:31 10° S 21:42:13 79° W 21:47:30 10° N
Cosmos 1553 Rocket 4.4 21:37:48 15° SSE 21:42:26 41° E 21:48:04 10° NNE
Cosmos 1953 Rocket 3.7 21:40:54 10° SSW 21:45:14 74° W 21:49:38 10° N
MetOp-B 4.4 21:43:43 20° SE 21:47:16 52° ENE 21:52:27 10° N
ERS-1 Rocket 3.7 21:46:45 21° SE 21:49:26 37° ENE 21:54:03 10° N
Cosmos 1758 Rocket 4.5 21:46:05 10° SSW 21:50:24 50° W 21:54:42 10° N
Cosmos 1437 2.5 21:48:03 10° N 21:51:13 78° E 21:52:33 32° SSE
Cosmos 1674 2.6 21:50:20 21° S 21:52:46 65° E 21:56:34 10° NNE
Cosmos 2251 Rocket 3.9 21:56:52 21° SSE 22:00:07 45° ESE 22:05:10 10° NNE
Cosmos 724 4.4 21:54:22 10° NNW 22:00:24 68° ENE 22:03:55 26° SE
USA 215 3.3 21:58:50 23° SE 22:03:14 77° SW 22:09:50 10° NW
Terra 3.7 22:02:30 14° E 22:03:45 16° ENE 22:06:33 10° NNE
ERS-2 4.1 22:00:59 10° SSW 22:04:03 25° W 22:07:09 10° NW
Resurs 01 Rocket 3.7 22:00:31 10° SSW 22:04:05 24° W 22:07:41 10° NW
Cosmos 1726 2.6 22:03:00 10° N 22:06:35 41° E 22:07:13 38° ESE
Cosmos 2221 4.3 22:05:08 10° NE 22:07:54 17° ENE 22:08:10 16° E
H-2A R/B 4.3 22:09:35 22° ESE 22:09:35 22° ESE 22:18:35 10° E
NOSS 2-2 (E) 4.4 22:11:46 27° E 22:11:46 27° E 22:14:19 10° NE
Cosmos 921 Rocket 3.0 22:07:13 10° NNW 22:11:43 84° ENE 22:13:34 36° SSE
NOSS 3-4 (A) 3.5 22:06:45 10° SSW 22:12:43 56° ESE 22:18:50 10° NE
NOSS 3-4 (C) 3.5 22:06:51 10° SSW 22:12:48 55° ESE 22:18:54 10° NE
OAO 3 Rocket 3.1 22:08:10 10° W 22:13:08 85° S 22:15:31 31° ESE
USA 245 4.5 22:12:58 28° SSE 22:16:24 74° ENE 22:22:50 10° N
Iridium 81 4.1 22:17:11 58° NW 22:17:11 58° NW 22:19:37 10° N
Cosmos 1461 3.0 22:15:56 15° SSW 22:19:38 74° ESE 22:24:22 10° NNE
ARGOS 3.6 22:17:48 21° S 22:21:25 59° W 22:26:46 10° NNW
Cosmos 2278 Rocket 2.1 22:18:53 23° S 22:22:27 64° ESE 22:28:04 10° NNE
ATLAS 3B CENTAUR R/B 4.1 22:10:40 10° WSW 22:30:05 48° S 22:35:03 27° ESE
Meteor 1-21 Rocket 4.2 22:30:00 30° S 22:32:59 78° E 22:38:48 10° NNE
IGS 5A 4.3 22:33:19 33° ENE 22:33:25 33° ENE 22:37:10 10° N
Cosmos 220 Rocket 4.4 22:31:09 20° SSW 22:33:58 59° WNW 22:38:08 10° N
APEX 3.6 22:32:00 10° N 22:35:06 44° ENE 22:35:06 44° ENE
NOSS 2-2 (D) 3.9 22:42:34 42° ENE 22:42:34 42° ENE 22:45:31 10° NE
Cosmos 1745 Rocket 3.9 22:35:13 10° N 22:41:33 83° E 22:43:58 40° SSE
Meteor 2-13 Rocket 4.4 22:35:41 10° N 22:41:47 75° E 22:43:51 43° SSE
CARTOSAT-1 4.0 22:43:53 45° ENE 22:43:59 45° ENE 22:48:06 10° N
COSMOS 2406 3.2 22:38:49 10° NNW 22:44:35 76° WSW 22:46:26 44° S
SL-14 R/B 3.1 22:44:52 87° SW 22:44:56 88° W 22:48:52 10° N
SPOT 5 2.9 22:45:39 52° SSE 22:46:57 89° WSW 22:52:14 10° NNW
Cosmos 1076 Rocket 4.0 22:55:44 47° ENE 22:55:44 47° ENE 22:59:10 10° NNE
ATLAS 5 CENTAUR R/B 1.5 22:55:48 65° SW 22:56:27 86° WNW 23:01:12 10° NNE
ATLAS 3B R/B 2.5 22:51:38 10° NNW 22:58:15 86° WSW 23:00:07 50° SSE
SPOT 1/Viking Rocket 3.7 23:00:46 52° SSW 23:01:51 67° WSW 23:06:59 10° NNW
H-2A R/B 3.6 22:59:23 19° SW 23:02:03 29° W 23:06:40 10° NW
USA 238 DEB 4.0 22:55:36 10° NW 23:02:39 61° WSW 23:05:06 41° S
USA 238 4.0 22:55:42 10° NW 23:02:46 62° WSW 23:05:12 41° S
Cosmos 1626 3.1 23:06:16 43° NNE 23:06:16 43° NNE 23:08:52 10° N
Helios 1A 3.4 23:05:04 54° WSW 23:05:10 54° W 23:09:18 10° NNW
Cosmos 2297 3.8 23:06:55 55° E 23:06:55 55° E 23:12:20 10° NNE
NOSS 2-2 (C) 3.7 23:07:58 61° NNW 23:07:58 61° NNW 23:11:44 10° NNE
Cosmos 1241 Rocket 4.3 23:07:45 59° SE 23:08:24 62° ESE 23:14:32 10° NE
Helios 1B rocket 2.9 23:05:47 10° N 23:09:47 55° WNW 23:10:02 54° W
YAOGAN 11 4.5 23:14:27 57° NE 23:14:27 57° NE 23:18:33 10° N
Cosmos 2082 Rocket 2.9 23:08:53 10° N 23:14:13 38° ENE 23:14:50 37° ENE
NOSS 3-2 (A) 4.0 23:06:39 10° NNW 23:14:27 82° WSW 23:17:06 48° SSE
Cosmos 1709 Rocket 3.8 23:08:36 10° N 23:14:49 75° E 23:15:45 63° SE
Cosmos 1833 Rocket 3.2 23:09:27 10° N 23:14:49 44° ENE 23:15:19 43° E
CZ-2C R/B 2.5 23:15:51 10° NNE 23:21:06 70° E 23:21:06 70° E
Landsat 7 4.4 23:21:20 47° WSW 23:21:38 48° W 23:26:14 10° NNW
Spot 1 4.4 23:24:21 65° WNW 23:24:21 65° WNW 23:28:27 10° NNW
Aureole 3 Rocket 4.2 23:24:36 48° S 23:26:59 87° W 23:32:57 10° N
Meteor 2-19 Rocket 4.3 23:23:56 10° N 23:30:05 70° E 23:30:33 67° ESE
Cosmos 1455 4.1 23:32:11 10° N 23:34:03 25° NNE 23:34:03 25° NNE
NOSS 3-2 (C) 4.0 23:32:34 10° NW 23:40:22 77° WSW 23:42:13 57° S
RESURS DK-1 3.6 23:41:55 41° NNW 23:41:55 41° NNW 23:44:54 10° NNE
EO 1 Delta rocket 4.1 23:34:35 10° N 23:40:52 89° E 23:40:54 88° SSE
Terra 2.5 23:41:23 46° W 23:41:23 46° W 23:45:40 10° NNW
Cosmos 2221 4.0 23:41:43 10° NNW 23:45:02 30° WNW 23:45:02 30° WNW
Cosmos 1992 Rocket 4.1 23:44:11 10° NNW 23:48:50 71° NNW 23:48:50 71° NNW
